www.pogodaiklimat.ru

Погода и климат >> Архив погоды >> Япония >> Ниигата


ПОГОДА в Ниигате

  • Прогноз погоды в Ниигате
  • Монитор погоды в Ниигате

АРХИВ ПОГОДЫ в Ниигате

Время (UTC), дата Ветер
(напр.,м/с)
 
Видим.   Явления Облачность Т
(С)
Тd
(С)
f
(%)
Тe
(С)
Тes
(С)
Комфортность P
(гПа)
Po
(гПа)
Тmin
(С)
Tmax
(С)
R
(мм)
R24
(мм)
S
(см)
10 17.06 ЮЗ 2 н/о н/о +16.9 +14.6 86 +17 +17 1013.4 1012.7
11 17.06 ЮЗ 3 н/о н/о +17.1 +14.8 86 +17 +17 1013.9 1013.2
12 17.06 ЮЗ 2 20 км в посл. час ливневой дождь 9/9
[Cu Sc]
+16.8 +15.0 89 +17 +17 1014.4 1013.7 +21.2 0.0
13 17.06 Ю 2 н/о н/о +17.2 +14.9 86 +18 +18 1014.7 1014.0
14 17.06 Ю 3 н/о н/о +17.3 +15.1 87 +17 +17 1014.8 1014.1
15 17.06 ЮЗ 3 н/о н/о +17.1 +14.9 87 +17 +17 1014.7 1014.0
16 17.06 Ю 2 н/о н/о +16.4 +14.9 91 +17 +17 1014.6 1013.9
17 17.06 ЮЗ 1 н/о н/о +16.6 +15.1 91 +17 +17 1014.5 1013.8
18 17.06 ЮВ 2 20 км 1/1
[Cu Sc]
+15.9 +14.8 93 +16 +16 1014.1 1013.4
19 17.06 ЮЗ 1 н/о н/о +15.3 +13.9 91 +16 +16 1014.1 1013.4
20 17.06 Ю 1 н/о н/о +14.5 +13.4 93 +15 +15 1013.9 1013.2
21 17.06 Ю 2 30 км 9/1
[Cu med, cong Ci sp]
+16.2 +13.3 83 +17 +18 1013.6 1012.9
22 17.06 Ю 3 н/о н/о +17.8 +13.5 76 +18 +18 1013.3 1012.6
23 17.06 Ю 2 н/о н/о +20.2 +13.9 67 +23 +23 комфорт 1013.3 1012.6
00 18.06 С 2 30 км 9/1
[Cu hum Ac trans Ci sp]
+20.4 +14.3 68 +24 +31 комфорт 1012.9 1012.2 +14.1
01 18.06 С 3 н/о н/о +20.8 +14.5 67 +24 +24 комфорт 1012.7 1012.0
02 18.06 С 3 н/о н/о +20.8 +14.0 65 +24 +24 комфорт 1012.4 1011.7
03 18.06 С 3 30 км 9/1
[Cu hum Ac trans Ci sp]
+21.8 +14.2 62 +25 +34 комфорт 1011.7 1011.0
04 18.06 СВ 2 н/о н/о +22.4 +14.0 59 +26 +26 жарко 1011.0 1010.3
05 18.06 С 3 н/о н/о +22.5 +14.4 60 +26 +26 жарко 1010.8 1010.1
06 18.06 С 2 30 км 5/1
[Cu hum Ac trans Ci fib]
+22.8 +14.1 58 +26 +34 жарко 1010.6 1009.9
07 18.06 С 3 н/о н/о +21.9 +14.8 64 +25 +25 комфорт 1010.5 1009.8
08 18.06 СВ 2 н/о н/о +21.5 +15.4 68 +25 +25 комфорт 1010.4 1009.7
09 18.06 СВ 2 30 км 8/3
[Cu hum Ac trans Ci fib]
+20.3 +15.3 73 +24 +24 комфорт 1010.3 1009.6
10 18.06 СВ 2 н/о н/о +19.7 +15.6 77 +23 +23 комфорт 1010.4 1009.7
11 18.06 В 2 н/о н/о +19.6 +16.1 80 +22 +22 комфорт 1010.7 1010.0
12 18.06 СВ 1 20 км 8/1
[Cu hum Ac trans]
+19.3 +15.4 78 +22 +22 комфорт 1010.9 1010.2 +23.7
13 18.06 В 2 н/о н/о +19.4 +14.9 75 +22 +22 комфорт 1010.4 1009.7
14 18.06 В 1 н/о н/о +19.6 +15.3 76 +23 +23 комфорт 1010.4 1009.7
15 18.06 ЮВ 2 н/о н/о +18.9 +16.0 83 +21 +21 комфорт 1010.0 1009.3
16 18.06 ЮЗ 1 н/о н/о +19.4 +16.5 83 +23 +23 комфорт 1009.4 1008.7
17 18.06 В 2 н/о н/о +19.6 +16.3 81 +23 +23 комфорт 1008.6 1007.9
18 18.06 Ю 1 20 км слаб. ливневой дождь 10/8
[Cu Sc Ac As]
+19.7 +16.4 81 +23 +23 комфорт 1008.7 1008.0 0.0
19 18.06 ЮЗ 2 н/о н/о +18.6 +17.1 91 +20 +20 1009.3 1008.6
20 18.06 З 1 н/о н/о +18.1 +17.5 96 +20 +20 1009.3 1008.6
21 18.06 В 2 10 км в посл. час ливневой дождь 9/8
[Cu med, cong Ac As]
+18.5 +17.5 94 +20 +20 1008.7 1008.0
22 18.06 В 2 н/о н/о +18.8 +18.0 95 +21 +21 комфорт 1008.3 1007.6
23 18.06 СЗ 1 н/о н/о +18.9 +17.9 94 +21 +21 комфорт 1008.9 1008.2
00 19.06 СЗ 2 6000 м слаб. ливневой дождь 10/8 100 м
[Cu med, cong Ac As]
+18.5 +18.0 97 +20 +21 1009.0 1008.3 +18.1 5
01 19.06 З 1 н/о н/о +19.0 +17.3 90 +22 +22 комфорт 1008.9 1008.2
02 19.06 ЮЗ 1 н/о н/о +18.9 +17.2 90 +22 +22 комфорт 1008.7 1008.0
03 19.06 З 1 6000 м слаб. ливневой дождь 10/10
[Cu med, cong]
+18.6 +17.5 93 +21 +21 комфорт 1008.4 1007.7
04 19.06 З 1 н/о н/о +18.7 +17.6 93 +21 +21 комфорт 1008.2 1007.5
05 19.06 З 1 н/о н/о +18.1 +17.3 95 +19 +19 1007.7 1007.0
06 19.06 В 1 10 км в посл. час ливневой дождь 10/10
[Cu Sc]
+18.5 +17.7 95 +20 +20 1007.2 1006.5 8
07 19.06 С 1 н/о н/о +18.7 +17.6 93 +21 +21 комфорт 1007.1 1006.4
08 19.06 штиль 0 н/о н/о +18.9 +17.6 92 +20 +20 1006.9 1006.2
09 19.06 В 2 8000 м дымка {ливн. осадки} 9/9
[Cu Sc Ac trans]
+19.2 +17.5 90 +22 +22 комфорт 1006.6 1005.9
10 19.06 В 2 н/о н/о +19.1 +18.0 93 +22 +22 комфорт 1006.6 1005.9
11 19.06 СВ 1 н/о н/о +18.6 +18.0 96 +21 +21 комфорт 1006.8 1006.1
12 19.06 СВ 2 10 км {ливн. осадки} 9/1
[Cu hum Ac trans]
+18.0 +17.7 98 +19 +19 1007.4 1006.7 +19.6 8
13 19.06 СВ 2 н/о н/о +17.9 +17.6 98 +19 +19 1007.2 1006.5
14 19.06 В 2 н/о н/о +17.7 +17.4 98 +18 +18 1006.6 1005.9
15 19.06 СВ 1 н/о н/о +17.2 +17.2 100 +18 +18 1006.3 1005.6
16 19.06 В 1 н/о н/о +16.7 +16.7 100 +17 +17 1006.0 1005.3
17 19.06 В 1 н/о н/о +16.7 +16.7 100 +18 +18 1005.8 1005.1
18 19.06 штиль 0 10 км 4/1
[Cu hum Ac trans Ci fib]
+16.7 +16.7 100 +17 +17 1005.8 1005.1
19 19.06 СЗ 1 н/о н/о +15.9 +15.9 100 +17 +17 1006.0 1005.3
20 19.06 С 1 н/о н/о +16.1 +16.1 100 +17 +17 1006.2 1005.5
21 19.06 В 1 6000 м в посл. час туман 1/1
[Cu med, cong Ac trans]
+17.4 +17.4 100 +19 +21 1006.3 1005.6
22 19.06 ЮВ 1 н/о н/о +19.5 +18.3 93 +23 +23 комфорт 1006.5 1005.8
23 19.06 С 2 н/о н/о +20.6 +18.4 87 +25 +25 комфорт 1006.8 1006.1
00 20.06 С 2 20 км {туман} 8/8
[Cu med, cong]
+19.9 +16.6 81 +23 +26 комфорт 1007.1 1006.4 +15.6
01 20.06 В 1 н/о н/о +21.2 +17.2 78 +25 +25 комфорт 1007.1 1006.4
02 20.06 СЗ 2 н/о н/о +21.9 +17.7 77 +26 +26 душно 1007.2 1006.5
03 20.06 СЗ 3 10 км 3/3
[Cu med, cong]
+21.9 +17.5 76 +26 +39 душно 1006.9 1006.2
04 20.06 СЗ 3 н/о н/о +22.0 +17.6 76 +27 +27 душно 1006.8 1006.1
05 20.06 С 2 н/о н/о +22.6 +17.1 71 +27 +27 душно 1006.4 1005.7
06 20.06 С 3 10 км 3/1
[Cu med, cong Ci sp]
+22.8 +17.9 74 +28 +37 душно 1006.4 1005.7
07 20.06 С 3 н/о н/о +22.2 +18.0 77 +27 +27 душно 1006.6 1005.9
08 20.06 С 2 н/о н/о +22.3 +16.8 71 +27 +27 душно 1006.7 1006.0
09 20.06 С 2 15 км 3/1
[Cu med, cong Ac trans Ci fib]
+21.8 +17.0 74 +26 +27 душно 1006.8 1006.1
10 20.06 С 2 н/о н/о +20.4 +17.2 82 +24 +24 комфорт 1007.5 1006.8
11 20.06 С 2 н/о н/о +20.0 +17.6 86 +24 +24 комфорт 1008.2 1007.5
12 20.06 С 1 15 км 3/0
[Ac trans]
+19.3 +17.5 89 +22 +22 комфорт 1009.1 1008.4 +23.6
13 20.06 В 2 н/о н/о +19.4 +17.0 86 +22 +22 комфорт 1009.0 1008.3
14 20.06 В 1 н/о н/о +19.1 +18.0 93 +22 +22 комфорт 1009.1 1008.4
15 20.06 В 1 н/о н/о +18.7 +17.9 95 +21 +21 комфорт 1009.0 1008.3
16 20.06 штиль 0 н/о н/о +18.8 +18.2 96 +20 +20 1008.8 1008.1
17 20.06 В 1 н/о н/о +18.4 +17.9 97 +21 +21 комфорт 1008.7 1008.0
18 20.06 Ю 1 20 км 6/0
[Ci fib]
+18.3 +17.8 97 +20 +20 1008.8 1008.1
19 20.06 СВ 1 н/о н/о +18.1 +17.9 99 +20 +20 1008.8 1008.1
20 20.06 Ю 1 н/о н/о +18.2 +17.4 95 +20 +20 1009.1 1008.4
21 20.06 В 2 7000 м дымка 9/0
[Ac trans Ci sp]
+19.3 +17.6 90 +22 +24 комфорт 1009.1 1008.4
22 20.06 ЮВ 1 н/о н/о +21.0 +17.8 82 +26 +26 душно 1008.8 1008.1
23 20.06 ЮВ 3 н/о н/о +24.3 +18.0 68 +29 +29 душно 1008.3 1007.6
00 21.06 Ю 4 15 км 9/0
[Ac trans Ci sp]
+25.3 +18.0 64 +30 +36 душно 1007.8 1007.1 +17.6
01 21.06 Ю 3 н/о н/о +26.5 +18.9 63 +32 +32 очень
душно
1007.7 1007.1
02 21.06 СЗ 2 н/о н/о +24.5 +17.5 65 +29 +29 душно 1007.6 1006.9
03 21.06 СЗ 2 10 км 10/1
[Cu hum Cs]
+25.9 +19.3 67 +31 +46 очень
душно
1007.3 1006.7
04 21.06 СЗ 1 н/о н/о +26.9 +18.8 61 +32 +32 очень
душно
1007.0 1006.4
05 21.06 С 2 н/о н/о +27.1 +18.4 59 +32 +32 очень
душно
1006.7 1006.1
06 21.06 С 3 15 км 8/1
[Cb calv Cs]
+26.9 +19.0 62 +32 +40 очень
душно
1006.2 1005.6
07 21.06 С 2 н/о н/о +26.4 +17.8 59 +31 +31 душно 1006.2 1005.6
08 21.06 СВ 2 н/о н/о +25.9 +18.1 62 +30 +30 душно 1006.1 1005.5
09 21.06 СВ 4 15 км 9/3
[Cb cap Ac trans Ci ing]
+25.1 +16.8 60 +29 +29 душно 1006.2 1005.5
10 21.06 СВ 3 н/о н/о +24.5 +16.5 61 +28 +28 душно 1006.1 1005.4
11 21.06 С 2 н/о н/о +23.9 +16.7 64 +27 +27 жарко 1006.4 1005.7
12 21.06 СЗ 1 15 км 9/1
[Cu hum Ci sp]
+22.4 +18.2 77 +28 +28 душно 1007.0 1006.3 +27.8
13 21.06 Ю 2 н/о н/о +22.2 +19.2 83 +28 +28 душно 1007.1 1006.4
15 21.06 ЮЗ 4 н/о н/о +20.5 +19.0 91 +25 +25 комфорт 1007.1 1006.4
16 21.06 Ю 3 н/о н/о +20.4 +18.4 88 +24 +24 комфорт 1007.2 1006.5
17 21.06 ЮЗ 2 н/о н/о +20.4 +18.7 90 +25 +25 комфорт 1007.1 1006.4
18 21.06 Ю 2 15 км в посл. час ливневой дождь {гроза} 9/1
[Cu hum Ac trans Ci sp]
+20.2 +18.9 92 +25 +25 комфорт 1007.0 1006.3 2
19 21.06 Ю 1 н/о н/о +20.0 +18.7 92 +24 +24 комфорт 1006.7 1006.0
20 21.06 В 2 н/о н/о +20.2 +18.9 92 +24 +24 комфорт 1006.2 1005.5
21 21.06 В 2 10 км {ливн. осадки} 9/1
[Cu hum Ac As Ci sp]
+21.1 +18.7 86 +25 +26 комфорт 1006.0 1005.3
22 21.06 ЮВ 1 н/о н/о +21.5 +18.7 84 +26 +26 душно 1006.0 1005.3
23 21.06 СВ 1 н/о н/о +21.9 +19.1 84 +27 +27 душно 1005.5 1004.8
00 22.06 ЮВ 3 15 км слаб. ливневой дождь 9/8
[Cu med, cong Ac As]
+23.0 +18.6 76 +29 +30 очень
душно
1005.1 1004.4 +19.6 2
01 22.06 ЮВ 3 н/о н/о +23.1 +19.5 80 +30 +30 очень
душно
1004.8 1004.1
02 22.06 ЮВ 3 н/о н/о +24.2 +19.1 73 +29 +29 душно 1004.3 1003.6
03 22.06 С 2 8000 м дымка {ливн. осадки} 9/3
[Cu med, cong Ac As]
+22.0 +19.4 85 +27 +33 душно 1004.2 1003.5
04 22.06 С 3 н/о н/о +21.9 +19.5 86 +27 +27 душно 1003.5 1002.8
05 22.06 СЗ 3 н/о н/о +21.6 +19.7 89 +27 +27 душно 1003.3 1002.6
06 22.06 В 3 6000 м слаб. ливневой дождь, в посл. час гроза 10/8
[Cu med, cong Ac As]
+21.7 +19.8 89 +27 +28 душно 1003.7 1003.0 0.5
07 22.06 СВ 2 н/о н/о +22.0 +20.1 89 +28 +28 душно 1003.7 1003.0
08 22.06 СВ 2 н/о н/о +21.6 +19.4 87 +27 +27 душно 1003.6 1002.9
09 22.06 В 2 8000 м в посл. час ливневой дождь 9/3
[Cu med, cong Ac As]
+21.7 +19.3 86 +27 +27 душно 1003.8 1003.1
10 22.06 В 2 н/о н/о +21.1 +19.4 90 +26 +26 душно 1004.0 1003.3
11 22.06 В 1 н/о н/о +20.1 +18.8 92 +25 +25 комфорт 1004.2 1003.5
12 22.06 Ю 1 10 км {ливн. осадки} 1/1
[Cu hum Ac trans]
+20.1 +19.1 94 +25 +25 комфорт 1004.6 1003.9 +26.4 1
13 22.06 ЮВ 2 н/о н/о +19.9 +18.9 94 +24 +24 комфорт 1004.1 1003.4
14 22.06 ЮЗ 2 н/о н/о +19.6 +19.0 96 +23 +23 комфорт 1004.0 1003.3
15 22.06 Ю 2 н/о н/о +19.9 +19.4 97 +24 +24 комфорт 1004.0 1003.3
16 22.06 Ю 2 н/о н/о +20.0 +19.7 98 +24 +24 комфорт 1004.0 1003.3
17 22.06 Ю 1 н/о н/о +19.7 +19.4 98 +24 +24 комфорт 1004.4 1003.7
18 22.06 ЮВ 2 8000 м дымка 9/9
[St]
+19.4 +18.8 96 +22 +22 комфорт 1004.3 1003.6
19 22.06 Ю 2 н/о н/о +19.9 +18.4 91 +24 +24 комфорт 1004.8 1004.1
20 22.06 Ю 2 н/о н/о +20.0 +17.8 87 +24 +24 комфорт 1005.0 1004.3
21 22.06 Ю 3 15 км 9/9
[Cu Sc]
+19.7 +18.0 90 +23 +23 комфорт 1005.5 1004.8
22 22.06 Ю 2 н/о н/о +20.5 +18.6 89 +25 +25 комфорт 1006.0 1005.3
23 22.06 Ю 2 н/о н/о +22.3 +17.9 76 +27 +27 душно 1006.0 1005.3
00 23.06 ЮЗ 3 20 км 9/9
[Cu Sc Ac trans]
+22.0 +16.1 69 +26 +27 душно 1006.0 1005.3 +19.3
01 23.06 ЮЗ 3 н/о н/о +22.2 +16.3 69 +26 +26 душно 1006.1 1005.4
02 23.06 Ю 3 н/о н/о +23.0 +17.5 71 +28 +28 душно 1006.2 1005.5
03 23.06 ЮЗ 3 30 км 9/9
[Cu Sc]
+23.4 +16.0 63 +28 +30 душно 1005.8 1005.1
04 23.06 ЮЗ 3 н/о н/о +23.9 +16.2 62 +27 +27 жарко 1005.6 1004.9
05 23.06 З 3 н/о н/о +24.2 +16.7 63 +28 +28 душно 1005.4 1004.7
06 23.06 ЮЗ 3 30 км 9/4
[Cu med, cong Ac trans Ci sp]
+24.2 +16.2 61 +28 +31 душно 1005.2 1004.5
07 23.06 ЮЗ 3 н/о н/о +23.5 +16.1 63 +27 +27 душно 1005.3 1004.6
08 23.06 ЮЗ 4 н/о н/о +22.6 +16.9 70 +27 +27 душно 1006.1 1005.4
09 23.06 ЮЗ 3 30 км 9/6
[Cu Sc Ac As]
+21.8 +16.3 71 +26 +26 душно 1006.6 1005.9
10 23.06 З 3 н/о н/о +21.1 +16.7 76 +25 +25 комфорт 1006.9 1006.2
11 23.06 З 3 н/о н/о +20.7 +17.3 81 +25 +25 комфорт 1007.4 1006.7
12 23.06 ЮЗ 3 20 км 10/8
[Cu med, cong Ac As]
+20.3 +17.7 85 +24 +24 комфорт 1008.1 1007.4 +25.0
13 23.06 ЮЗ 1 н/о н/о +20.4 +17.6 84 +25 +25 комфорт 1008.4 1007.7
14 23.06 З 1 н/о н/о +20.0 +17.0 83 +24 +24 комфорт 1008.5 1007.8
15 23.06 Ю 1 н/о н/о +19.9 +17.3 85 +24 +24 комфорт 1008.5 1007.8
16 23.06 штиль 0 н/о н/о +19.6 +17.9 90 +22 +22 комфорт 1008.1 1007.4
17 23.06 ЮВ 1 н/о н/о +19.3 +17.6 90 +22 +22 комфорт 1008.0 1007.3
18 23.06 ЮВ 1 20 км в посл. час дождь 10/9
[Cu Sc Ac As]
+19.3 +18.0 92 +22 +22 комфорт 1008.5 1007.8 0.0
19 23.06 ЮЗ 1 н/о н/о +19.5 +17.6 89 +23 +23 комфорт 1008.3 1007.6
20 23.06 ЮВ 1 н/о н/о +19.7 +18.2 91 +23 +23 комфорт 1008.9 1008.2
21 23.06 СВ 2 15 км 10/8
[Cu Sc Ac As]
+20.0 +18.1 89 +24 +24 комфорт 1008.7 1008.0
22 23.06 СВ 1 н/о н/о +19.9 +18.0 89 +24 +24 комфорт 1009.1 1008.4
23 23.06 штиль 0 н/о н/о +20.4 +18.2 87 +24 +24 комфорт 1009.6 1008.9
00 24.06 С 2 15 км слаб. дождь 10/10
[Cu Sc]
+20.3 +18.4 89 +25 +25 комфорт 1009.8 1009.1 +18.8 0.0
01 24.06 штиль 0 н/о н/о +20.2 +19.0 93 +24 +24 комфорт 1010.3 1009.6
02 24.06 СВ 2 н/о н/о +20.6 +18.9 90 +25 +25 комфорт 1010.2 1009.5
03 24.06 В 2 10 км слаб. дождь 10/10
[Sc]
+20.1 +18.2 89 +24 +24 комфорт 1010.7 1010.0
04 24.06 С 2 н/о н/о +20.0 +18.5 91 +24 +24 комфорт 1010.8 1010.1
05 24.06 СВ 2 н/о н/о +20.7 +17.9 84 +25 +25 комфорт 1010.7 1010.0
06 24.06 С 2 15 км {дождь} 9/9
[Sc Ac As]
+20.9 +17.7 82 +26 +27 душно 1011.1 1010.4 1
07 24.06 С 2 н/о н/о +20.7 +18.1 85 +25 +25 комфорт 1011.3 1010.6
08 24.06 С 4 н/о н/о +20.1 +18.1 88 +23 +23 комфорт 1011.4 1010.7

 

Местоположение метеостанции Ниигата (Япония): широта 37.92 долгота 139.05 высота над уровнем моря 6 м.

В архиве по умолчанию представлена погода в Ниигате за последнюю неделю. Архивные данные за месяц целиком и за предыдущие месяцы, начиная с января 2011 года, Вы можете получить, выбрав интересующий диапазон дат из раскрывающегося списка и нажав кнопку "Ввод!".


*Определитесь, кто Вы:
робот инопланетянин человек

Внимание! Время в таблицах - всемирное. Для получения местного времени необходимо прибавить поправку, которая равна 9 ч.

Смотрите также архив погоды в соседних городах и на ближайших метеорологических станциях:

Погода в Айкаве (Япония) (73 км)
Погода в Вакамацу (Япония) (90 км)
Погода в Такаде (Япония) (115 км)
Погода в Ямаге (Япония) (120 км)
Погода в Фукусиме (Япония) (125 км)
Погода в Сакате (Япония) (131 км)
Погода в Сиракаве (Япония) (135 км)
Погода в Никко (Япония) (138 км)
Погода в Синдзё (Япония) (144 км)
Погода в Нагано (Япония) (158 км)

Пояснения к столбцам:

Ветер - указаны скорость ветра в м/с - средняя за 10 мин, порывы в срок и между сроками (в фигурных скобках) и направление, откуда дует ветер: С - северный, СВ - северо-восточный, В - восточный, ЮВ - юго-восточный, Ю - южный, ЮЗ - юго-западный, З - западный, СЗ - северо-западный.
Видимость - горизонтальная дальность видимости в метрах или километрах. При видимости от 1 до 10 км при отсутствии осадков обычно наблюдается дымка, при ухудшении видимости до 1 км и менее - туман. В сухую погоду видимость может ухудшаться дымом, пылью или мглою.
Явления - указаны атмосферные явления, наблюдавшиеся в срок или в последний час перед сроком; фигурными скобками обозначены явления, наблюдавшиеся между сроками (за 1-3 часа до срока); квадратными скобками обозначены град или гололедные отложения с указанием их диаметра в мм.
Облачность - указаны через наклонную черту общая и нижняя облачность в баллах и высота нижней границы облаков в метрах; квадратными скобками обозначены формы облаков: Ci - перистые, Cs - перисто-слоистые, Cc - перисто-кучевые, Ac - высококучевые, As - высокослоистые, Sc - слоисто-кучевые, Ns - слоисто-дождевые, Cu - кучевые, Cb - кучево-дождевые. Подробнее классификацию облаков см. в Атласе облаков (PDF).
T - Температура воздуха - температура, измеренная на высоте 2 м над землей.
Td - Температура точки росы - температура, при понижении до которой содержащийся в воздухе водяной пар достигнет насыщения.
f - Относительная влажность воздуха - влажноcть воздуха, измеренная на высоте 2 м над землей.
Te - Эффективная температура - температура, которую ощущает одетый по сезону человек в тени. Характеристика душности погоды. При расчете учитывается влияние влажности воздуха и скорости ветра на теплоощущения человека.
Tes - Эффективная температура на солнце - температура, которую ощущает человек, с поправкой на солнечный нагрев. Характеристика знойности погоды. Зависит от высоты солнца над горизонтом, облачности и скорости ветра. Ночью, в пасмурную погоду, а также при ветре 12 м/с и более поправка равна нулю.
P - Атмосферное давление - приведенное к уровню моря атмосферное давление.
Po - Атмосферное давление - измеренное на уровне метеостанции атмосферное давление.
Tmin - Минимальная температура - минимум температуры воздуха на высоте 2 м над землей.
Tmax - Максимальная температура - максимум температуры воздуха на высоте 2 м над землей.
R - Количество осадков - Количество выпавших осадков за период времени, мм. При наведении курсора мыши на число - период времени, за который выпало указанное количество осадков.
R24 - Количество осадков - Количество выпавших осадков за 24 часа, мм.
S - Снежный покров - Высота снежного покрова, см. При наведении курсора мыши на число - состояние снежного покрова и степень покрытия местности в баллах.